[[{"header":{"parameterUnit":"m.s-1","parameterCategory":1,"la1":30.2991,"la2":30.254,"lo1":-89.0895,"lo2":-89.0444,"dy":0.0017,"dx":0.0017,"nx":28,"ny":28,"refTime":"2025-11-26T03:00:00:Z","depth":0,"parameterNumber":2,"parameterNumberName":"U-component_of_WINDS"},"data":[0,0,0,0,0,0,0,0,0,0,0,0,0,0,0,0,0,0,0,0,0,0,0,0,0,0,0,0,0,0,0,0,0,0,0,0,0,0,0,0,0,0,0,0,0,0,0,0,0,0,0,0,0,0,0,0,0,0,0.5725,0.5725,0,0.5705,0.5705,0.5705,0.5717,0.5717,0.5718,0.5719,0.5695,0.5694,0.5693,0,0,0,0,0,0,0,0,0,0,0,0,0,0.5772,0.5771,0.5725,0.5725,0.5725,0.5705,0.5705,0.5704,0.5717,0.5718,0.5718,0.5719,0.5696,0.5694,0.5693,0,0,0,0,0,0,0,0,0,0,0,0,0,0.5752,0.5771,0.5725,0.5728,0.5728,0.5705,0.5705,0.5704,0.5717,0.5718,0.5718,0.5719,0.5696,0.5695,0.5693,0.5664,0,0,0.5687,0.5687,0,0,0,0,0,0,0,0,0.5753,0.575,0.5728,0.5728,0.5728,0.5714,0.5713,0.5691,0.5716,0.5721,0.5719,0.572,0.5701,0.5699,0.5693,0.5663,0.5662,0.5687,0.5686,0.5685,0.5685,0,0,0,0,0,0,0,0.5754,0.5751,0.5717,0.5728,0.5728,0.573,0.5728,0.5709,0.5706,0.5721,0.5722,0.5719,0.5701,0.5695,0.5693,0.5662,0.5687,0.5686,0.5685,0.5684,0.5607,0.5606,0,0,0,0,0,0,0.5756,0.5752,0.5718,0.5716,0.5743,0.5729,0.5727,0.5718,0.5706,0.5706,0.5718,0.572,0.5697,0.5695,0.5692,0.5657,0.5685,0.5684,0.5683,0.5608,0.5607,0.5606,0,0,0,0,0,0,0.5756,0.5752,0.5718,0.5734,0.573,0.5727,0.5717,0.5717,0.5711,0.5705,0.5704,0.5712,0.5698,0.5694,0.5671,0.5656,0.5683,0.5681,0.561,0.5608,0.5607,0.5587,0,0,0,0,0,0,0.5758,0.5753,0.5742,0.5734,0.5729,0.5699,0.5716,0.5716,0.5708,0.571,0.5699,0.5698,0.5698,0.5674,0.5669,0.5654,0.568,0.5611,0.5609,0.5607,0.5589,0.5585,0.5582,0,0,0,0,0,0.5759,0.5737,0.5741,0.5737,0.5716,0.5698,0.5695,0.5696,0.5707,0.5696,0.5692,0.5698,0.5659,0.5671,0.5666,0.5651,0.5612,0.5609,0.5607,0.5591,0.5586,0.5582,0,0,0,0,0,0,0.5742,0.5736,0.5741,0.5715,0.5707,0.57,0.5686,0.5691,0.5679,0.5681,0.5683,0.568,0.5656,0.5652,0.5665,0.5623,0.5637,0.5634,0.5626,0.5622,0.5618,0.5619,0.5679,0,0,0,0,0,0.5735,0.5722,0.5717,0.5695,0.569,0.5689,0.5681,0.5683,0.5674,0.567,0.5665,0.5656,0.5641,0.5631,0.5618,0.559,0.5587,0.5576,0.5573,0.557,0.5566,0.5551,0.5546,0.5599,0.5599,0.5599,0,0,0.5721,0.5716,0.5707,0.5691,0.5685,0.567,0.5686,0.5669,0.5658,0.5668,0.5645,0.5641,0.5631,0.5605,0.5593,0.56,0.5552,0.5567,0.5565,0.5563,0.5548,0.5543,0.5538,0.5597,0.5598,0.5598,0,0,0.5687,0.5682,0.5663,0.5657,0.5648,0.5647,0.5643,0.5635,0.5633,0.5611,0.5619,0.5605,0.558,0.5572,0.5565,0.553,0.5535,0.5525,0.5506,0.549,0.5486,0.5482,0.5469,0.5464,0.5522,0.5522,0.5522,0,0.5669,0.5648,0.5652,0.5635,0.5627,0.5638,0.5618,0.5611,0.5598,0.5592,0.5601,0.557,0.5564,0.5536,0.5528,0.5522,0.5516,0.5526,0.5487,0.5483,0.548,0.5466,0.5461,0.5521,0.5521,0.5521,0.5522,0,0.5627,0.5612,0.5597,0.5585,0.5576,0.5558,0.5559,0.5549,0.5553,0.5551,0.5529,0.5522,0.5507,0.5501,0.5504,0.5474,0.5478,0.5487,0.5501,0.5473,0.5461,0.5456,0.5519,0.552,0.552,0.5521,0,0,0.5579,0.5571,0.5565,0.556,0.5551,0.5539,0.5522,0.5508,0.5499,0.5491,0.5475,0.5455,0.5463,0.5455,0.5457,0.5444,0.5415,0.5454,0.5454,0.5446,0.538,0.5372,0.5367,0.5419,0.5418,0.5418,0.5381,0,0.5543,0.5512,0.5516,0.5487,0.5472,0.5483,0.5467,0.546,0.5458,0.5446,0.5444,0.5429,0.5442,0.5437,0.5424,0.5421,0.5401,0.5424,0.5403,0.5403,0.5404,0.536,0.5352,0.5317,0.5376,0.5375,0.5375,0,0.5496,0.5487,0.5456,0.545,0.5444,0.543,0.5419,0.5407,0.5399,0.5399,0.5391,0.5396,0.5377,0.5394,0.5368,0.5383,0.5375,0.5373,0.5371,0.5368,0.5385,0.5354,0.5306,0.53,0.5367,0.5368,0.5368,0,0.5463,0.5442,0.5421,0.5417,0.541,0.5399,0.5396,0.5389,0.5381,0.5371,0.5365,0.5353,0.5346,0.5336,0.5337,0.5349,0.531,0.5327,0.5308,0.5308,0.5298,0.5298,0.5246,0.5296,0.5296,0.5296,0.5296,0,0.5421,0.5401,0.5406,0.5393,0.5371,0.5376,0.5354,0.5352,0.5346,0.5332,0.5341,0.5327,0.5331,0.5317,0.5319,0.5296,0.5293,0.5292,0.5292,0.529,0.529,0.5283,0.5285,0.5295,0.5295,0.5295,0.5296,0,0.5379,0.5381,0.5359,0.5355,0.5353,0.5337,0.5333,0.5321,0.5321,0.5303,0.5299,0.5299,0.5284,0.5285,0.5267,0.5268,0.524,0.5244,0.5243,0.5243,0.5224,0.5225,0.5165,0.5156,0.5213,0.5213,0.5212,0,0.5351,0.5336,0.5331,0.5323,0.5319,0.5306,0.5298,0.5303,0.5294,0.5285,0.5273,0.5259,0.5248,0.5223,0.522,0.5207,0.521,0.519,0.5208,0.5206,0.5207,0.5208,0.5206,0.5185,0.5185,0.5184,0.5184,0,0.5301,0.5303,0.5292,0.5281,0.5272,0.5263,0.5256,0.5248,0.5252,0.5242,0.5227,0.5219,0.5202,0.5187,0.5175,0.5171,0.5177,0.5179,0.5173,0.517,0.5169,0.5168,0.5231,0.5179,0.518,0.518,0.518,0.518,0.5264,0.5251,0.5246,0.5233,0.5228,0.5221,0.5209,0.5208,0.5196,0.5183,0.5187,0.517,0.5163,0.5148,0.5142,0.5129,0.5136,0.5128,0.5126,0.5124,0.5121,0.5173,0.5127,0.5127,0.5127,0.5127,0.5127,0,0.5213,0.5211,0.5199,0.5189,0.5178,0.5188,0.518,0.517,0.5156,0.5149,0.5139,0.5121,0.5108,0.5105,0.5092,0.5082,0.5084,0.5078,0.5077,0.5076,0.5116,0.5121,0.5076,0.5076,0.5076,0.5076,0.5076,0.5076,0.5185,0.5164,0.5166,0.5143,0.514,0.5124,0.5119,0.5112,0.5107,0.5088,0.5077,0.5076,0.5071,0.5058,0.5046,0.5045,0.5039,0.5031,0.5032,0.5068,0.5073,0.5078,0.5083,0.503,0.503,0.4993,0.4992,0.4992]},{"header":{"parameterUnit":"m.s-1","parameterCategory":1,"la1":30.2991,"la2":30.254,"lo1":-89.0895,"lo2":-89.0444,"dy":0.0017,"dx":0.0017,"nx":28,"ny":28,"refTime":"2025-11-26T03:00:00:Z","depth":0,"parameterNumber":3,"parameterNumberName":"V-component_of_WINDS"},"data":[0,0,0,0,0,0,0,0,0,0,0,0,0,0,0,0,0,0,0,0,0,0,0,0,0,0,0,0,0,0,0,0,0,0,0,0,0,0,0,0,0,0,0,0,0,0,0,0,0,0,0,0,0,0,0,0,0,0,-6.1934,-6.1935,0,-6.2027,-6.2028,-6.2029,-6.194,-6.1937,-6.1933,-6.193,-6.2019,-6.2025,-6.203,0,0,0,0,0,0,0,0,0,0,0,0,0,-6.1676,-6.1681,-6.1934,-6.1935,-6.1936,-6.2027,-6.2028,-6.2029,-6.1941,-6.1936,-6.1932,-6.1928,-6.2017,-6.2024,-6.2031,0,0,0,0,0,0,0,0,0,0,0,0,0,-6.178,-6.1682,-6.1934,-6.1903,-6.1901,-6.2026,-6.2028,-6.2029,-6.1942,-6.1936,-6.1931,-6.1926,-6.2015,-6.2023,-6.2032,-6.219,0,0,-6.2058,-6.2061,0,0,0,0,0,0,0,0,-6.1774,-6.1789,-6.1907,-6.1906,-6.1904,-6.1967,-6.1969,-6.2083,-6.1943,-6.1926,-6.193,-6.1924,-6.2006,-6.2014,-6.2043,-6.2194,-6.2198,-6.2058,-6.2063,-6.2067,-6.2069,0,0,0,0,0,0,0,-6.1767,-6.1785,-6.197,-6.1908,-6.1907,-6.1883,-6.1892,-6.199,-6.1994,-6.1927,-6.1921,-6.1934,-6.2004,-6.2035,-6.2045,-6.2199,-6.2058,-6.2066,-6.2071,-6.2074,-6.2484,-6.249,0,0,0,0,0,0,-6.1764,-6.178,-6.1967,-6.1973,-6.1825,-6.1892,-6.1902,-6.1952,-6.1993,-6.1994,-6.1938,-6.1929,-6.2023,-6.2035,-6.2047,-6.2236,-6.2067,-6.2075,-6.208,-6.2478,-6.2485,-6.2492,0,0,0,0,0,0,-6.1759,-6.1781,-6.1964,-6.1875,-6.1896,-6.1902,-6.1958,-6.1956,-6.1988,-6.2001,-6.2001,-6.197,-6.202,-6.2035,-6.2155,-6.2238,-6.2079,-6.2086,-6.2472,-6.2481,-6.2489,-6.2614,0,0,0,0,0,0,-6.1752,-6.178,-6.1841,-6.1877,-6.1901,-6.2072,-6.1964,-6.1962,-6.2003,-6.1993,-6.2031,-6.2032,-6.2017,-6.2143,-6.2164,-6.2246,-6.2093,-6.2464,-6.2476,-6.2486,-6.2602,-6.2626,-6.2646,0,0,0,0,0,-6.1743,-6.1871,-6.1845,-6.1868,-6.1978,-6.2077,-6.2091,-6.2072,-6.201,-6.2071,-6.208,-6.2031,-6.2225,-6.2156,-6.2179,-6.2265,-6.2459,-6.2472,-6.2485,-6.2593,-6.2621,-6.2645,0,0,0,0,0,0,-6.1843,-6.1875,-6.1846,-6.1991,-6.2032,-6.2062,-6.2138,-6.2103,-6.2161,-6.2148,-6.2121,-6.213,-6.2257,-6.2273,-6.2195,-6.242,-6.2332,-6.235,-6.2406,-6.2433,-6.2454,-6.2448,-6.21,0,0,0,0,0,-6.1882,-6.1962,-6.1985,-6.211,-6.2132,-6.2132,-6.2174,-6.2157,-6.2197,-6.2214,-6.2231,-6.2271,-6.2341,-6.2388,-6.2453,-6.2604,-6.2611,-6.2674,-6.2696,-6.2714,-6.273,-6.2811,-6.284,-6.2535,-6.2534,-6.2534,0,0,-6.1963,-6.1991,-6.2042,-6.2131,-6.2161,-6.2242,-6.2147,-6.2237,-6.2297,-6.2227,-6.2342,-6.2356,-6.2399,-6.2536,-6.2596,-6.2552,-6.2816,-6.273,-6.2744,-6.2751,-6.2828,-6.2857,-6.2882,-6.2543,-6.2542,-6.254,0,0,-6.2153,-6.2182,-6.229,-6.2323,-6.237,-6.237,-6.2396,-6.2432,-6.2439,-6.2555,-6.2504,-6.2574,-6.2695,-6.2728,-6.276,-6.2964,-6.2922,-6.2986,-6.3099,-6.3179,-6.3203,-6.3225,-6.3298,-6.3324,-6.3002,-6.3002,-6.3003,0,-6.2248,-6.237,-6.235,-6.2444,-6.2485,-6.2427,-6.2536,-6.2568,-6.2633,-6.2662,-6.2612,-6.2764,-6.2788,-6.2932,-6.2983,-6.3011,-6.3039,-6.2982,-6.3202,-6.3223,-6.3242,-6.3312,-6.3339,-6.301,-6.3009,-6.3008,-6.3008,0,-6.2484,-6.257,-6.2651,-6.2719,-6.2768,-6.2869,-6.2863,-6.2915,-6.2893,-6.2897,-6.3016,-6.3043,-6.3114,-6.3146,-6.3125,-6.3288,-6.3259,-6.3206,-6.3117,-6.3279,-6.3344,-6.3371,-6.3021,-6.3018,-6.3016,-6.3014,0,0,-6.2739,-6.2796,-6.2826,-6.2857,-6.2905,-6.297,-6.3068,-6.3139,-6.3185,-6.3232,-6.3313,-6.3418,-6.337,-6.3407,-6.3388,-6.3458,-6.3619,-6.3397,-6.3397,-6.3438,-6.3801,-6.3841,-6.3872,-6.3591,-6.3596,-6.36,-6.3797,0,-6.2931,-6.3105,-6.309,-6.3253,-6.3332,-6.3279,-6.3364,-6.3403,-6.3409,-6.3476,-6.3482,-6.3557,-6.3487,-6.351,-6.3577,-6.3586,-6.3692,-6.3571,-6.3665,-6.3669,-6.3657,-6.3906,-6.3948,-6.4133,-6.3822,-6.3827,-6.383,0,-6.3179,-6.3238,-6.341,-6.3448,-6.348,-6.3558,-6.3622,-6.3687,-6.3729,-6.3728,-6.3771,-6.3741,-6.3838,-6.3747,-6.3881,-6.3799,-6.3836,-6.3847,-6.3853,-6.3862,-6.376,-6.3921,-6.4191,-6.422,-6.3869,-6.3866,-6.3863,0,-6.3349,-6.347,-6.359,-6.3617,-6.3664,-6.372,-6.3742,-6.3779,-6.3823,-6.3878,-6.3906,-6.3972,-6.4007,-6.4058,-6.4046,-6.398,-6.4183,-6.409,-6.4185,-6.4185,-6.423,-6.4227,-6.451,-6.4253,-6.4253,-6.4252,-6.4252,0,-6.3565,-6.3673,-6.3667,-6.374,-6.3859,-6.384,-6.3957,-6.3971,-6.4005,-6.4079,-6.4036,-6.4106,-6.4086,-6.4155,-6.4146,-6.4258,-6.4274,-6.4276,-6.4272,-6.428,-6.428,-6.4305,-6.4292,-6.426,-6.4258,-6.4257,-6.4256,0,-6.3775,-6.3775,-6.3902,-6.3937,-6.3948,-6.4034,-6.4063,-6.4132,-6.4135,-6.423,-6.4251,-6.4256,-6.4335,-6.4328,-6.4415,-6.4409,-6.4549,-6.4529,-6.4535,-6.4531,-6.4627,-6.4618,-6.4936,-6.4977,-6.4693,-6.4696,-6.4698,0,-6.3913,-6.3995,-6.404,-6.4088,-6.4115,-6.4192,-6.4237,-6.4221,-6.427,-6.4325,-6.4387,-6.4462,-6.4522,-6.465,-6.466,-6.4727,-6.4709,-6.4816,-6.4719,-6.4725,-6.4712,-6.4707,-6.4716,-6.4835,-6.4839,-6.4841,-6.4843,0,-6.4159,-6.4156,-6.4224,-6.4294,-6.435,-6.4403,-6.4451,-6.4492,-6.4481,-6.4538,-6.4619,-6.4666,-6.4757,-6.4832,-6.4896,-6.4916,-6.4879,-6.4874,-6.49,-6.4909,-6.4909,-6.4911,-6.4588,-6.4867,-6.4864,-6.4863,-6.4861,-6.486,-6.4338,-6.4409,-6.4452,-6.453,-6.4565,-6.4612,-6.4678,-6.4691,-6.476,-6.4834,-6.482,-6.4912,-6.4952,-6.5034,-6.5061,-6.5131,-6.5092,-6.5129,-6.5139,-6.5148,-6.516,-6.4898,-6.5143,-6.5142,-6.5141,-6.5141,-6.514,0,-6.4582,-6.4608,-6.468,-6.475,-6.4812,-6.4773,-6.4824,-6.4877,-6.496,-6.5001,-6.5061,-6.5155,-6.5228,-6.5245,-6.5315,-6.5368,-6.5352,-6.5387,-6.5383,-6.5388,-6.519,-6.5161,-6.5399,-6.5398,-6.5398,-6.5398,-6.5398,-6.5398,-6.4717,-6.4835,-6.4837,-6.4972,-6.4996,-6.5088,-6.5121,-6.5163,-6.5196,-6.5304,-6.5365,-6.5377,-6.5408,-6.548,-6.5545,-6.5548,-6.5576,-6.5617,-6.5613,-6.5428,-6.5402,-6.5377,-6.535,-6.5623,-6.5624,-6.5806,-6.5808,-6.5809]}]]